Location: Krasnoyarskiy Pitomnik
(51.1333°N, 71.6167°E)
Time: 10:13:50
(UTC+00:00)

CENTAUR R/B - Pass Details

Date: 22 October 2021
Orbit: 728 x 1459 km, 63.4° (Epoch: 26 November)

Event Time Altitude Azimuth Distance (km) Brightness Sun altitude
Rises 16:02:50 0° 312° (NW) 4,019 6.7 -36.6°
Reaches altitude 10° 16:05:26 10° 316° (NW) 3,153 5.9 -37.0°
Enters shadow 16:11:51 58° 356° (N) 1,524 3.5 -37.8°
